Location: Newark
(47.5833°N, 8.1500°E)
Time: 17:30:47
(UTC+00:00)

Transit 2A - Pass Details

Date: 04 November 2020
Orbit: 595 x 964 km, 66.7° (Epoch: 29 November)

Event Time Altitude Azimuth Distance (km) Brightness Sun altitude
Rises 02:49:50 0° 299° (WNW) 3,618 - -34.9°
Reaches altitude 10° 02:54:22 10° 328° (NNW) 2,619 - -34.2°
Maximum altitude 02:56:43 12° 351° (N) 2,426 - -33.8°
Exits shadow 02:57:07 12° 355° (N) 2,424 8.6 -33.8°
Drops below altitude 10° 02:59:00 10° 14° (NNE) 2,540 9.0 -33.4°
Sets 03:03:14 0° 44° (NE) 3,387 10.1 -32.8°
